Location: Melizzano
(41.1500°N, 14.5000°E)
Time: 09:16:53
(UTC+00:00)

Cosmos 1943 Rocket - Pass Details

Date: 11 May 2021
Orbit: 813 x 842 km, 71.0° (Epoch: 15 June)

Event Time Altitude Azimuth Distance (km) Brightness Sun altitude
Exits shadow 22:13:55 58° 289° (WNW) 973 2.5 -29.8°
Maximum altitude 22:14:05 58° 297° (WNW) 970 2.5 -29.8°
Drops below altitude 10° 22:19:36 10° 16° (NNE) 2,444 5.3 -30.0°
Sets 22:22:05 0° 21° (NNE) 3,377 6.2 -30.1°
